Bedford, MA

9:33 AM EDT on September 23, 2017 (GMT -0400)
Hanscom

Weather History for KBED - April, 2013

Change the Weather History Date:

Thursday, April 18, 2013

  Actual Average Record
Temperature  
Mean Temperature 48 °F -  
Max Temperature 62 °F 59 °F 92 °F (1976)
Min Temperature 34 °F 36 °F 24 °F (1962)
Degree Days  
Heating Degree Days 18    
Moisture  
Dew Point 34 °F    
Average Humidity 58    
Maximum Humidity 89    
Minimum Humidity 33    
Precipitation  
Precipitation 0.00 in - - ()
Sea Level Pressure  
Sea Level Pressure 30.35 in    
Wind  
Wind Speed 6 mph (SSE)    
Max Wind Speed 17 mph    
Max Gust Speed 24 mph    
Visibility 10 miles    
Events      
Averages and records for this station are not official NWS values.
T = Trace of Precipitation, MM = Missing Value Source: NWS Daily Summary

Daily Weather History Graph

Daily Weather History Graph

Search for Another Location

Airport or City:

Trip Planner

Search our weather history database for the weather conditions in past years. The results will help you decide how hot, cold, wet, or windy it might be!

Date:

Astronomy

Apr. 18, 2013 Rise Set
Actual Time 5:58 AM EDT 7:30 PM EDT
Civil Twilight 5:29 AM EDT 8:00 PM EDT
Nautical Twilight 4:53 AM EDT 8:35 PM EDT
Astronomical Twilight 4:16 AM EDT 9:14 PM EDT
Moon 12:06 PM EDT (4/18) 1:45 AM EDT (4/18)
Length of Visible Light 14h 30m
Length of Day
13h 31m
First Quarter, 51% of the Moon is Illuminated
Apr 18
First Quarter
Apr 25
Full
May 2
Last Quarter
May 9
New
May 18
First Quarter

Hourly Weather History & Observations

Time (EDT) Temp. Dew Point Humidity Pressure Visibility Wind Dir Wind Speed Gust Speed Precip Events Conditions
12:56 AM 39.9 °F 30.0 °F 68% 30.40 in 10.0 mi Calm Calm - N/A   Clear
1:56 AM 39.9 °F 30.9 °F 70% 30.40 in 10.0 mi Calm Calm - N/A   Clear
2:56 AM 37.0 °F 30.0 °F 76% 30.39 in 10.0 mi Calm Calm - N/A   Clear
3:56 AM 35.1 °F 32.0 °F 89% 30.42 in 10.0 mi Calm Calm - N/A   Clear
4:56 AM 35.1 °F 32.0 °F 89% 30.44 in 10.0 mi Calm Calm - N/A   Clear
5:56 AM 34.0 °F 30.9 °F 89% 30.44 in 10.0 mi Calm Calm - N/A   Clear
6:56 AM 37.0 °F 32.0 °F 82% 30.44 in 10.0 mi Calm Calm - N/A   Clear
7:56 AM 48.0 °F 32.0 °F 54% 30.46 in 10.0 mi East 10.4 mph - N/A   Clear
8:56 AM 51.1 °F 30.0 °F 44% 30.46 in 10.0 mi East 10.4 mph - N/A   Clear
9:56 AM 53.1 °F 33.1 °F 47% 30.45 in 10.0 mi ESE 10.4 mph 17.3 mph N/A   Clear
10:56 AM 55.0 °F 33.1 °F 43% 30.44 in 10.0 mi ESE 10.4 mph - N/A   Clear
11:56 AM 55.9 °F 35.1 °F 45% 30.42 in 10.0 mi ESE 10.4 mph - N/A   Scattered Clouds
12:56 PM 57.9 °F 35.1 °F 42% 30.38 in 10.0 mi ESE 12.7 mph 20.7 mph N/A   Scattered Clouds
1:56 PM 61.0 °F 34.0 °F 36% 30.35 in 10.0 mi East 8.1 mph 19.6 mph N/A   Scattered Clouds
2:56 PM 61.0 °F 34.0 °F 36% 30.33 in 10.0 mi SSW 12.7 mph 18.4 mph N/A   Overcast
3:56 PM 60.1 °F 30.9 °F 33% 30.31 in 10.0 mi South 13.8 mph 23.0 mph N/A   Overcast
4:56 PM 57.9 °F 30.9 °F 36% 30.30 in 10.0 mi SSW 17.3 mph 24.2 mph N/A   Overcast
5:56 PM 55.9 °F 28.0 °F 34% 30.30 in 10.0 mi South 12.7 mph - N/A   Overcast
6:56 PM 54.0 °F 27.0 °F 35% 30.28 in 10.0 mi South 8.1 mph - N/A   Overcast
7:56 PM 54.0 °F 28.9 °F 38% 30.25 in 10.0 mi South 15.0 mph - N/A   Overcast
8:56 PM 52.0 °F 41.0 °F 66% 30.25 in 10.0 mi South 17.3 mph 24.2 mph N/A   Scattered Clouds
9:56 PM 50.0 °F 41.0 °F 71% 30.23 in 10.0 mi South 6.9 mph - N/A   Clear
10:45 PM 51.8 °F 42.8 °F 71% 30.17 in 10.0 mi South 9.2 mph - N/A   Mostly Cloudy
10:56 PM 51.1 °F 42.1 °F 71% 30.20 in 10.0 mi South 11.5 mph - N/A   Overcast
11:56 PM 51.1 °F 44.1 °F 77% 30.18 in 10.0 mi South 12.7 mph 19.6 mph N/A   Overcast